Location: *
(48.8780°N, 19.2358°E)
Time: 17:33:25
(UTC+00:00)

STARLINK-65 - Pass Details

Date: 18 October 2019
Orbit: 548 x 551 km, 53.0° (Epoch: 20 November)

Event Time Altitude Azimuth Distance (km) Brightness Sun altitude
Rises 17:16:56 0° 267° (W) 2,716 9.0 -15.3°
Reaches altitude 10° 17:19:13 10° 272° (W) 1,824 7.7 -15.7°
Maximum altitude 17:23:16 51° 350° (N) 694 4.2 -16.3°
Enters shadow 17:25:18 26° 54° (NE) 1,097 4.7 -16.7°
